Simultaneous Nadir Overpasses (SNOs) Predictions

Prediction of SNOs between GOES-16 and AQUA Satellite Orbit:

Table of predicted SNOs for the next 14.0 days since TLE Epoch: 5/18/2024
Index Date Time (GOES-16) GOES-16 Lat,Lon AQUA Lat,Lon Distance(km) Time Diff (sec)
1 05/18/2024 07:05:04 -0.00, -75.20 -0.12, -74.53 76.58 80
2 05/18/2024 19:28:03 -0.00, -75.20 -0.93, -79.44 482.89 80
3 05/20/2024 19:11:40 0.00, -75.21 -0.02, -75.44 25.74 80
4 05/22/2024 18:52:34 0.01, -75.23 0.81, -71.42 432.65 80
5 05/23/2024 07:15:23 -0.00, -75.24 0.20, -76.31 120.93 80
6 05/25/2024 06:56:15 -0.01, -75.25 -0.64, -72.28 338.30 80
7 05/25/2024 19:19:13 0.01, -75.25 -0.39, -77.19 220.44 80
8 05/27/2024 19:00:03 0.01, -75.27 0.45, -73.15 240.07 80
9 05/28/2024 07:22:52 -0.01, -75.28 0.56, -78.04 312.81 80
10 05/30/2024 07:03:40 -0.00, -75.30 -0.28, -73.99 149.45 80
11 05/30/2024 19:26:37 0.00, -75.31 -0.74, -78.90 408.50 80
